QPF
0.00 0.00 0.00 0.00 0.00 0.01 0.01 0.02 0.03 0.03 0.03 0.03 0.05 0.08 0.07 0.12 0.28 0.35 0.26 0.22 0.29 0.29 0.26 0.24 0.21 0.16 0.09 0.05 0.05 0.03 0.02 0.01 0.01 0.01 0.00 0.00 0.00 0.00 0.00 0.00 0.00 0.00 0.00 0.00
0.00 0.00 0.00 0.00 0.00 0.00 0.01 0.01 0.02 0.03 0.02 0.04 0.05 0.08 0.12 0.12 0.16 0.25 0.29 0.18 0.17 0.22 0.21 0.18 0.16 0.12 0.10 0.08 0.04 0.02 0.01 0.00 0.00 0.00 0.00 0.00 0.00 0.00 0.00 0.00 0.00 0.00 0.00 0.00
0.00 0.00 0.00 0.00 0.00 0.00 0.01 0.01 0.01 0.02 0.03 0.04 0.06 0.07 0.11 0.14 0.12 0.16 0.22 0.15 0.12 0.12 0.14 0.12 0.10 0.10 0.09 0.06 0.03 0.01 0.01 0.00 0.00 0.00 0.00 0.00 0.00 0.00 0.00 0.00 0.00 0.00 0.00 0.00
0.00 0.00 0.00 0.00 0.00 0.00 0.01 0.01 0.01 0.01 0.03 0.04 0.05 0.07 0.08 0.11 0.10 0.09 0.11 0.13 0.11 0.12 0.11 0.10 0.09 0.07 0.04 0.02 0.01 0.01 0.00 0.00 0.00 0.00 0.00 0.00 0.00 0.00 0.00 0.00 0.00 0.00 0.00 0.00
0.00 0.00 0.00 0.00 0.00 0.01 0.00 0.00 0.01 0.02 0.05 0.05 0.05 0.06 0.05 0.03 0.05 0.04 0.05 0.06 0.07 0.08 0.07 0.07 0.06 0.03 0.02 0.01 0.00 0.00 0.00 0.00 0.00 0.00 0.00 0.00 0.00 0.00 0.00 0.00 0.00 0.00 0.00 0.00
0.01 0.01 0.01 0.01 0.01 0.01 0.00 0.01 0.02 0.03 0.05 0.08 0.05 0.05 0.03 0.01 0.01 0.01 0.01 0.02 0.05 0.04 0.03 0.04 0.03 0.02 0.01 0.01 0.01 0.00 0.00 0.00 0.00 0.00 0.00 0.00 0.00 0.00 0.00 0.00 0.00 0.00 0.00 0.00
0.01 0.01 0.01 0.01 0.01 0.00 0.00 0.01 0.02 0.05 0.07 0.08 0.04 0.05 0.02 0.01 0.00 0.00 0.00 0.00 0.00 0.01 0.01 0.01 0.01 0.01 0.01 0.01 0.00 0.00 0.00 0.01 0.01 0.00 0.00 0.00 0.00 0.00 0.00 0.00 0.00 0.00 0.00 0.00
0.01 0.01 0.01 0.01 0.01 0.00 0.00 0.01 0.02 0.04 0.05 0.09 0.10 0.09 0.04 0.01 0.00 0.00 0.00 0.00 0.00 0.00 0.00 0.00 0.00 0.00 0.00 0.00 0.00 0.00 0.00 0.00 0.00 0.00 0.00 0.00 0.00 0.00 0.00 0.00 0.00 0.00 0.00 0.00
0.01 0.00 0.01 0.01 0.01 0.01 0.01 0.01 0.01 0.02 0.04 0.08 0.11 0.10 0.04 0.00 0.00 0.00 0.00 0.00 0.00 0.00 0.00 0.00 0.00 0.00 0.00 0.00 0.00 0.00 0.00 0.00 0.00 0.00 0.00 0.00 0.00 0.00 0.00 0.00 0.00 0.00 0.00 0.00
0.01 0.00 0.01 0.01 0.01 0.01 0.01 0.01 0.01 0.01 0.03 0.04 0.05 0.07 0.03 0.01 0.00 0.00 0.00 0.00 0.00 0.00 0.00 0.00 0.00 0.00 0.00 0.00 0.00 0.00 0.00 0.00 0.00 0.00 0.00 0.00 0.00 0.00 0.00 0.00 0.00 0.00 0.00 0.00
0.01 0.00 0.00 0.01 0.02 0.02 0.02 0.01 0.01 0.01 0.02 0.03 0.05 0.04 0.02 0.01 0.00 0.00 0.00 0.00 0.00 0.00 0.00 0.00 0.00 0.00 0.00 0.00 0.00 0.00 0.00 0.00 0.00 0.00 0.00 0.00 0.00 0.00 0.00 0.00 0.00 0.00 0.00 0.00
0.00 0.00 0.00 0.01 0.02 0.02 0.02 0.03 0.03 0.02 0.02 0.02 0.02 0.01 0.01 0.01 0.01 0.00 0.00 0.00 0.00 0.00 0.00 0.00 0.00 0.00 0.00 0.00 0.00 0.00 0.00 0.00 0.00 0.00 0.00 0.00 0.00 0.00 0.00 0.00 0.00 0.00 0.00 0.00
0.00 0.00 0.00 0.01 0.01 0.01 0.01 0.01 0.01 0.02 0.01 0.02 0.02 0.02 0.02 0.01 0.01 0.01 0.00 0.00 0.00 0.00 0.00 0.00 0.00 0.00 0.00 0.00 0.00 0.00 0.00 0.00 0.00 0.00 0.00 0.00 0.00 0.00 0.00 0.00 0.00 0.00 0.00 0.00
0.00 0.00 0.00 0.00 0.01 0.02 0.02 0.01 0.01 0.01 0.01 0.01 0.02 0.02 0.02 0.01 0.02 0.01 0.00 0.00 0.00 0.00 0.00 0.00 0.00 0.00 0.00 0.00 0.00 0.00 0.00 0.00 0.00 0.00 0.00 0.00 0.00 0.00 0.00 0.00 0.00 0.00 0.00 0.00
0.00 0.00 0.00 0.00 0.01 0.01 0.03 0.02 0.02 0.02 0.01 0.01 0.01 0.01 0.01 0.01 0.01 0.01 0.00 0.00 0.00 0.00 0.00 0.00 0.00 0.00 0.00 0.00 0.00 0.00 0.00 0.00 0.00 0.00 0.00 0.00 0.00 0.00 0.00 0.00 0.00 0.00 0.00 0.00
0.00 0.00 0.00 0.00 0.01 0.02 0.03 0.03 0.03 0.03 0.02 0.02 0.02 0.02 0.01 0.01 0.01 0.01 0.01 0.00 0.00 0.00 0.00 0.00 0.00 0.00 0.00 0.00 0.00 0.00 0.00 0.00 0.00 0.00 0.00 0.00 0.00 0.00 0.00 0.00 0.00 0.00 0.00 0.00
0.00 0.00 0.00 0.00 0.01 0.01 0.03 0.03 0.03 0.03 0.03 0.03 0.03 0.03 0.02 0.02 0.02 0.01 0.01 0.00 0.00 0.00 0.00 0.00 0.00 0.00 0.00 0.00 0.00 0.00 0.00 0.00 0.00 0.00 0.00 0.00 0.00 0.00 0.00 0.00 0.00 0.00 0.00 0.00
0.01 0.01 0.01 0.01 0.01 0.01 0.02 0.03 0.03 0.03 0.03 0.05 0.06 0.04 0.03 0.03 0.03 0.02 0.01 0.01 0.00 0.00 0.00 0.00 0.00 0.00 0.00 0.00 0.00 0.00 0.00 0.00 0.00 0.00 0.00 0.00 0.00 0.00 0.00 0.00 0.00 0.00 0.00 0.00
0.02 0.02 0.02 0.02 0.01 0.01 0.01 0.03 0.04 0.07 0.06 0.05 0.06 0.06 0.04 0.04 0.02 0.01 0.01 0.01 0.01 0.00 0.00 0.00 0.00 0.00 0.00 0.00 0.00 0.00 0.00 0.00 0.00 0.00 0.00 0.00 0.00 0.00 0.00 0.00 0.00 0.00 0.00 0.00
0.03 0.03 0.03 0.02 0.02 0.02 0.03 0.04 0.04 0.05 0.06 0.08 0.10 0.10 0.06 0.04 0.04 0.04 0.04 0.02 0.01 0.01 0.01 0.00 0.01 0.01 0.01 0.01 0.00 0.00 0.01 0.01 0.01 0.01 0.01 0.01 0.01 0.00 0.00 0.00 0.00 0.00 0.00 0.00
0.05 0.06 0.06 0.05 0.05 0.05 0.06 0.07 0.07 0.11 0.14 0.20 0.23 0.18 0.11 0.06 0.05 0.04 0.03 0.03 0.02 0.02 0.01 0.01 0.01 0.00 0.00 0.00 0.00 0.01 0.01 0.02 0.02 0.02 0.01 0.01 0.01 0.01 0.00 0.00 0.00 0.00 0.00 0.01
0.06 0.11 0.13 0.12 0.14 0.13 0.11 0.12 0.15 0.20 0.20 0.21 0.16 0.11 0.07 0.04 0.03 0.02 0.01 0.01 0.01 0.01 0.01 0.01 0.01 0.01 0.01 0.01 0.01 0.01 0.02 0.02 0.03 0.02 0.01 0.01 0.01 0.01 0.01 0.01 0.01 0.01 0.01 0.01
0.06 0.07 0.10 0.12 0.14 0.14 0.13 0.11 0.10 0.08 0.07 0.06 0.03 0.02 0.02 0.01 0.01 0.01 0.00 0.00 0.00 0.00 0.01 0.01 0.01 0.01 0.01 0.02 0.02 0.02 0.03 0.03 0.03 0.03 0.02 0.02 0.02 0.02 0.02 0.02 0.01 0.01 0.01 0.01
0.03 0.02 0.04 0.07 0.12 0.13 0.12 0.08 0.05 0.04 0.03 0.02 0.01 0.01 0.01 0.00 0.00 0.00 0.00 0.00 0.00 0.00 0.01 0.01 0.01 0.01 0.01 0.02 0.02 0.02 0.03 0.04 0.04 0.04 0.04 0.04 0.04 0.03 0.02 0.02 0.01 0.01 0.01 0.01
0.01 0.02 0.05 0.10 0.15 0.16 0.13 0.09 0.07 0.04 0.02 0.01 0.00 0.00 0.00 0.00 0.00 0.00 0.00 0.00 0.00 0.00 0.01 0.01 0.01 0.02 0.02 0.02 0.03 0.03 0.03 0.03 0.04 0.05 0.05 0.04 0.04 0.03 0.02 0.02 0.02 0.02 0.01 0.02
0.00 0.01 0.04 0.09 0.13 0.16 0.13 0.08 0.05 0.03 0.01 0.00 0.00 0.00 0.00 0.00 0.00 0.00 0.00 0.00 0.00 0.00 0.00 0.01 0.01 0.01 0.01 0.02 0.03 0.02 0.02 0.02 0.04 0.05 0.05 0.04 0.03 0.03 0.02 0.02 0.02 0.02 0.03 0.03
MSLP
1013.32 1013.86 1014.16 1014.26 1014.23 1014.15 1014.12 1014.20 1014.41 1014.72 1015.09 1015.43 1015.67 1015.76 1015.68 1015.42 1015.05 1014.63 1014.23 1013.91 1013.71 1013.64 1013.69 1013.82 1013.99 1014.17 1014.35 1014.53 1014.72 1014.94 1015.21 1015.55 1015.93 1016.34 1016.73 1017.08 1017.36 1017.54 1017.65 1017.68 1017.69 1017.71 1017.75 1017.83
1013.42 1013.86 1014.07 1014.10 1014.06 1014.04 1014.11 1014.33 1014.69 1015.14 1015.61 1015.98 1016.20 1016.21 1016.01 1015.63 1015.15 1014.65 1014.22 1013.92 1013.77 1013.77 1013.87 1014.04 1014.21 1014.37 1014.51 1014.63 1014.77 1014.97 1015.24 1015.61 1016.04 1016.50 1016.94 1017.32 1017.59 1017.73 1017.77 1017.74 1017.67 1017.63 1017.64 1017.73
1013.17 1013.48 1013.60 1013.59 1013.58 1013.66 1013.89 1014.32 1014.89 1015.52 1016.11 1016.54 1016.75 1016.68 1016.37 1015.86 1015.26 1014.69 1014.22 1013.92 1013.80 1013.85 1014.01 1014.21 1014.40 1014.54 1014.63 1014.70 1014.80 1014.96 1015.23 1015.62 1016.09 1016.61 1017.10 1017.51 1017.79 1017.92 1017.92 1017.82 1017.70 1017.60 1017.58 1017.66
1012.67 1012.85 1012.88 1012.86 1012.91 1013.13 1013.58 1014.25 1015.06 1015.90 1016.64 1017.15 1017.35 1017.21 1016.78 1016.13 1015.41 1014.73 1014.20 1013.88 1013.78 1013.86 1014.06 1014.28 1014.48 1014.60 1014.66 1014.68 1014.73 1014.86 1015.13 1015.52 1016.03 1016.60 1017.14 1017.60 1017.91 1018.05 1018.04 1017.92 1017.75 1017.62 1017.56 1017.62
1012.12 1012.16 1012.10 1012.09 1012.23 1012.63 1013.31 1014.23 1015.30 1016.36 1017.24 1017.82 1018.01 1017.79 1017.23 1016.43 1015.56 1014.75 1014.14 1013.77 1013.66 1013.76 1013.97 1014.22 1014.42 1014.53 1014.56 1014.54 1014.55 1014.64 1014.88 1015.28 1015.81 1016.41 1017.01 1017.52 1017.89 1018.07 1018.08 1017.97 1017.80 1017.65 1017.57 1017.60
1011.71 1011.60 1011.48 1011.48 1011.73 1012.30 1013.20 1014.37 1015.67 1016.90 1017.90 1018.52 1018.67 1018.35 1017.64 1016.68 1015.64 1014.70 1013.98 1013.55 1013.41 1013.50 1013.73 1014.00 1014.20 1014.31 1014.32 1014.27 1014.23 1014.29 1014.50 1014.89 1015.43 1016.06 1016.70 1017.26 1017.69 1017.93 1017.99 1017.92 1017.78 1017.64 1017.56 1017.58
1011.54 1011.32 1011.14 1011.17 1011.51 1012.23 1013.32 1014.68 1016.14 1017.49 1018.54 1019.15 1019.22 1018.78 1017.91 1016.78 1015.58 1014.50 1013.67 1013.17 1013.00 1013.08 1013.33 1013.61 1013.84 1013.95 1013.96 1013.89 1013.84 1013.86 1014.05 1014.41 1014.93 1015.56 1016.23 1016.84 1017.32 1017.63 1017.76 1017.76 1017.67 1017.56 1017.50 1017.52
1011.64 1011.32 1011.12 1011.18 1011.60 1012.43 1013.64 1015.11 1016.64 1018.02 1019.04 1019.57 1019.53 1018.94 1017.91 1016.61 1015.27 1014.07 1013.16 1012.60 1012.40 1012.49 1012.76 1013.08 1013.35 1013.51 1013.54 1013.49 1013.43 1013.43 1013.58 1013.91 1014.41 1015.03 1015.69 1016.32 1016.84 1017.21 1017.41 1017.47 1017.44 1017.38 1017.35 1017.38
1011.88 1011.53 1011.34 1011.43 1011.91 1012.80 1014.05 1015.52 1017.03 1018.34 1019.26 1019.66 1019.46 1018.71 1017.53 1016.11 1014.66 1013.38 1012.41 1011.84 1011.65 1011.77 1012.08 1012.47 1012.80 1013.03 1013.12 1013.11 1013.07 1013.08 1013.21 1013.50 1013.96 1014.53 1015.17 1015.79 1016.32 1016.72 1016.96 1017.08 1017.10 1017.09 1017.09 1017.13
1012.11 1011.79 1011.64 1011.78 1012.29 1013.18 1014.40 1015.80 1017.19 1018.34 1019.09 1019.31 1018.95 1018.05 1016.76 1015.25 1013.75 1012.45 1011.49 1010.94 1010.79 1010.96 1011.35 1011.82 1012.25 1012.56 1012.74 1012.81 1012.82 1012.85 1012.98 1013.24 1013.64 1014.16 1014.74 1015.32 1015.82 1016.22 1016.48 1016.62 1016.68 1016.71 1016.73 1016.79
1012.16 1011.92 1011.86 1012.06 1012.59 1013.45 1014.58 1015.83 1017.02 1017.97 1018.50 1018.52 1018.00 1016.99 1015.64 1014.12 1012.64 1011.38 1010.48 1010.00 1009.92 1010.17 1010.64 1011.20 1011.73 1012.15 1012.43 1012.59 1012.67 1012.75 1012.89 1013.13 1013.49 1013.94 1014.45 1014.95 1015.40 1015.76 1016.00 1016.15 1016.22 1016.26 1016.30 1016.37
1011.94 1011.85 1011.91 1012.18 1012.73 1013.54 1014.54 1015.60 1016.56 1017.27 1017.58 1017.41 1016.77 1015.70 1014.35 1012.88 1011.48 1010.33 1009.53 1009.15 1009.15 1009.48 1010.02 1010.65 1011.26 1011.77 1012.15 1012.40 1012.57 1012.70 1012.87 1013.11 1013.42 1013.81 1014.24 1014.67 1015.04 1015.34 1015.55 1015.68 1015.75 1015.79 1015.83 1015.90
1011.52 1011.60 1011.80 1012.17 1012.73 1013.47 1014.33 1015.18 1015.91 1016.38 1016.49 1016.17 1015.45 1014.38 1013.09 1011.73 1010.48 1009.47 1008.80 1008.51 1008.58 1008.95 1009.52 1010.18 1010.83 1011.39 1011.83 1012.16 1012.40 1012.60 1012.80 1013.04 1013.34 1013.68 1014.05 1014.40 1014.71 1014.95 1015.12 1015.22 1015.28 1015.32 1015.36 1015.43
1011.03 1011.30 1011.65 1012.11 1012.69 1013.36 1014.07 1014.73 1015.23 1015.49 1015.43 1015.01 1014.26 1013.24 1012.07 1010.87 1009.78 1008.92 1008.38 1008.16 1008.27 1008.63 1009.17 1009.79 1010.41 1010.96 1011.41 1011.77 1012.06 1012.31 1012.55 1012.82 1013.11 1013.43 1013.76 1014.07 1014.33 1014.53 1014.68 1014.76 1014.82 1014.86 1014.91 1014.98
1010.69 1011.14 1011.62 1012.15 1012.73 1013.33 1013.90 1014.38 1014.69 1014.77 1014.59 1014.11 1013.38 1012.45 1011.42 1010.40 1009.49 1008.77 1008.32 1008.15 1008.23 1008.52 1008.95 1009.46 1009.97 1010.44 1010.84 1011.18 1011.48 1011.76 1012.03 1012.33 1012.64 1012.97 1013.29 1013.59 1013.84 1014.04 1014.18 1014.28 1014.36 1014.42 1014.48 1014.57
1010.70 1011.27 1011.85 1012.42 1012.97 1013.48 1013.92 1014.24 1014.38 1014.33 1014.06 1013.56 1012.88 1012.07 1011.19 1010.34 1009.59 1009.00 1008.60 1008.41 1008.42 1008.58 1008.84 1009.16 1009.49 1009.81 1010.11 1010.39 1010.65 1010.93 1011.23 1011.56 1011.91 1012.26 1012.61 1012.93 1013.21 1013.44 1013.62 1013.76 1013.88 1013.97 1014.07 1014.17
1011.14 1011.78 1012.38 1012.94 1013.44 1013.85 1014.15 1014.31 1014.32 1014.16 1013.83 1013.34 1012.73 1012.03 1011.31 1010.62 1010.00 1009.49 1009.12 1008.88 1008.77 1008.75 1008.80 1008.89 1009.01 1009.14 1009.28 1009.45 1009.66 1009.91 1010.22 1010.57 1010.96 1011.36 1011.76 1012.13 1012.46 1012.75 1012.99 1013.20 1013.37 1013.52 1013.65 1013.78
1011.97 1012.60 1013.17 1013.66 1014.06 1014.34 1014.50 1014.53 1014.42 1014.17 1013.80 1013.34 1012.79 1012.21 1011.63 1011.06 1010.55 1010.11 1009.74 1009.44 1009.19 1008.99 1008.83 1008.69 1008.58 1008.51 1008.48 1008.53 1008.65 1008.86 1009.15 1009.52 1009.93 1010.38 1010.83 1011.26 1011.66 1012.02 1012.33 1012.60 1012.84 1013.04 1013.21 1013.35
1012.98 1013.54 1014.02 1014.39 1014.66 1014.80 1014.82 1014.72 1014.50 1014.19 1013.80 1013.37 1012.89 1012.42 1011.95 1011.50 1011.08 1010.69 1010.33 1009.97 1009.62 1009.27 1008.93 1008.59 1008.29 1008.04 1007.87 1007.80 1007.83 1007.98 1008.24 1008.60 1009.03 1009.50 1009.98 1010.46 1010.91 1011.32 1011.69 1012.01 1012.29 1012.52 1012.71 1012.85
1013.90 1014.34 1014.69 1014.92 1015.04 1015.04 1014.93 1014.71 1014.42 1014.07 1013.68 1013.28 1012.88 1012.50 1012.13 1011.79 1011.47 1011.14 1010.79 1010.42 1010.02 1009.59 1009.13 1008.67 1008.24 1007.87 1007.58 1007.41 1007.37 1007.46 1007.67 1008.00 1008.40 1008.86 1009.35 1009.83 1010.30 1010.73 1011.12 1011.46 1011.75 1011.99 1012.17 1012.28
1014.47 1014.77 1014.97 1015.05 1015.03 1014.91 1014.70 1014.41 1014.07 1013.71 1013.35 1013.00 1012.67 1012.38 1012.13 1011.89 1011.65 1011.41 1011.12 1010.79 1010.40 1009.95 1009.47 1008.97 1008.49 1008.06 1007.71 1007.48 1007.37 1007.40 1007.55 1007.82 1008.17 1008.59 1009.03 1009.48 1009.91 1010.32 1010.68 1010.99 1011.25 1011.44 1011.57 1011.64
1014.52 1014.68 1014.73 1014.69 1014.57 1014.36 1014.10 1013.79 1013.46 1013.13 1012.81 1012.53 1012.30 1012.10 1011.95 1011.82 1011.69 1011.54 1011.35 1011.10 1010.78 1010.40 1009.96 1009.50 1009.04 1008.61 1008.25 1007.99 1007.84 1007.81 1007.89 1008.08 1008.35 1008.68 1009.04 1009.41 1009.77 1010.10 1010.38 1010.62 1010.80 1010.92 1010.96 1010.94
1013.99 1014.04 1013.99 1013.87 1013.69 1013.46 1013.21 1012.93 1012.66 1012.40 1012.18 1011.99 1011.85 1011.76 1011.71 1011.68 1011.66 1011.61 1011.53 1011.40 1011.20 1010.93 1010.60 1010.23 1009.84 1009.46 1009.13 1008.86 1008.68 1008.59 1008.60 1008.69 1008.86 1009.07 1009.32 1009.58 1009.82 1010.04 1010.22 1010.35 1010.42 1010.42 1010.36 1010.23
1013.01 1012.98 1012.88 1012.73 1012.56 1012.38 1012.19 1012.01 1011.85 1011.71 1011.59 1011.52 1011.49 1011.49 1011.54 1011.60 1011.67 1011.73 1011.76 1011.75 1011.67 1011.53 1011.32 1011.07 1010.77 1010.47 1010.18 1009.92 1009.71 1009.57 1009.50 1009.49 1009.54 1009.64 1009.76 1009.89 1010.01 1010.10 1010.16 1010.16 1010.10 1009.97 1009.79 1009.54
1011.76 1011.70 1011.60 1011.49 1011.39 1011.30 1011.24 1011.20 1011.18 1011.19 1011.21 1011.26 1011.33 1011.43 1011.54 1011.68 1011.82 1011.96 1012.07 1012.15 1012.18 1012.15 1012.06 1011.91 1011.70 1011.46 1011.21 1010.96 1010.73 1010.53 1010.39 1010.29 1010.23 1010.21 1010.22 1010.23 1010.23 1010.20 1010.13 1010.01 1009.82 1009.57 1009.26 1008.91
1010.53 1010.47 1010.41 1010.38 1010.39 1010.44 1010.53 1010.66 1010.81 1010.97 1011.13 1011.29 1011.45 1011.62 1011.78 1011.95 1012.12 1012.30 1012.45 1012.59 1012.68 1012.72 1012.70 1012.61 1012.47 1012.27 1012.04 1011.79 1011.53 1011.29 1011.08 1010.91 1010.77 1010.66 1010.57 1010.49 1010.39 1010.26 1010.09 1009.86 1009.56 1009.20 1008.79 1008.33
Thickness
5796 5775 5762 5771 5775 5770 5765 5756 5747 5751 5759 5748 5737 5732 5733 5735 5734 5732 5728 5727 5728 5729 5734 5738 5740 5742 5741 5741 5741 5739 5737 5735 5734 5731 5728 5724 5722 5721 5720 5720 5719 5717 5716 5714
5775 5767 5787 5796 5792 5781 5768 5755 5748 5752 5758 5746 5733 5731 5735 5735 5733 5731 5730 5729 5731 5728 5730 5733 5735 5737 5738 5738 5739 5738 5737 5735 5734 5732 5729 5726 5724 5721 5719 5718 5716 5715 5713 5711
5768 5784 5803 5797 5788 5776 5766 5756 5751 5746 5748 5742 5733 5723 5726 5732 5735 5734 5734 5734 5734 5732 5731 5732 5733 5735 5736 5737 5737 5739 5737 5736 5734 5733 5729 5726 5722 5719 5716 5714 5713 5712 5711 5709
5784 5799 5801 5792 5784 5776 5757 5771 5766 5754 5733 5717 5723 5704 5720 5726 5727 5731 5732 5734 5734 5735 5735 5735 5735 5736 5737 5739 5740 5739 5737 5735 5734 5732 5728 5724 5719 5715 5714 5713 5711 5710 5709 5707
5783 5796 5794 5785 5788 5785 5768 5774 5762 5748 5729 5715 5715 5706 5714 5727 5724 5730 5736 5738 5739 5740 5740 5738 5739 5741 5742 5743 5742 5740 5738 5735 5734 5732 5729 5724 5719 5716 5714 5712 5710 5708 5707 5705
5794 5805 5802 5796 5799 5795 5779 5761 5748 5733 5720 5703 5710 5708 5711 5726 5734 5739 5742 5744 5744 5744 5744 5743 5745 5744 5743 5744 5743 5741 5738 5735 5734 5731 5728 5724 5720 5716 5713 5710 5707 5705 5703 5702
5780 5791 5802 5804 5786 5783 5772 5741 5715 5707 5695 5697 5716 5715 5719 5746 5753 5751 5749 5749 5750 5749 5748 5746 5745 5744 5744 5744 5744 5743 5739 5736 5734 5731 5728 5725 5721 5717 5713 5710 5706 5703 5700 5698
5757 5759 5789 5796 5786 5770 5767 5747 5716 5699 5693 5700 5713 5712 5734 5761 5765 5764 5761 5758 5756 5753 5753 5752 5751 5750 5749 5748 5747 5744 5740 5737 5734 5731 5728 5725 5722 5718 5713 5710 5706 5702 5699 5697
5754 5759 5792 5798 5796 5784 5765 5751 5747 5719 5707 5697 5707 5721 5744 5764 5763 5763 5761 5759 5757 5758 5758 5757 5756 5755 5754 5752 5750 5747 5743 5739 5735 5732 5728 5724 5721 5717 5713 5709 5706 5702 5700 5697
5772 5759 5777 5791 5790 5782 5775 5763 5736 5717 5697 5691 5703 5711 5721 5746 5753 5759 5760 5760 5761 5762 5762 5761 5760 5759 5758 5756 5753 5750 5746 5741 5737 5732 5728 5725 5721 5717 5713 5709 5705 5701 5698 5695
5777 5754 5758 5767 5760 5758 5761 5754 5738 5718 5710 5694 5688 5710 5753 5755 5759 5761 5764 5768 5767 5766 5766 5765 5764 5763 5760 5756 5753 5748 5744 5740 5735 5732 5728 5724 5720 5716 5712 5707 5704 5700 5697 5693
5775 5749 5737 5750 5765 5770 5762 5750 5734 5715 5709 5706 5698 5717 5774 5771 5771 5769 5770 5773 5772 5771 5770 5768 5766 5762 5758 5755 5752 5748 5744 5740 5736 5733 5728 5723 5719 5715 5710 5706 5703 5699 5695 5691
5773 5744 5722 5725 5735 5751 5751 5750 5740 5725 5711 5704 5700 5723 5773 5772 5772 5773 5773 5774 5773 5770 5767 5765 5762 5760 5757 5754 5751 5748 5744 5741 5737 5732 5727 5721 5717 5713 5709 5705 5701 5697 5693 5689
5776 5745 5728 5719 5724 5738 5740 5746 5745 5727 5709 5708 5717 5730 5754 5762 5766 5770 5772 5773 5771 5769 5766 5762 5759 5758 5757 5754 5751 5747 5743 5741 5736 5731 5725 5720 5716 5712 5708 5703 5699 5695 5691 5687
5768 5747 5748 5746 5750 5748 5744 5746 5746 5737 5728 5719 5727 5734 5747 5757 5764 5769 5771 5769 5767 5764 5762 5761 5758 5755 5753 5751 5748 5745 5743 5739 5736 5729 5724 5720 5716 5711 5706 5701 5697 5693 5688 5684
5760 5747 5745 5741 5749 5746 5743 5747 5748 5744 5741 5736 5734 5736 5754 5762 5764 5764 5765 5765 5763 5761 5761 5761 5758 5755 5752 5750 5747 5745 5741 5739 5734 5728 5724 5720 5714 5708 5703 5699 5694 5689 5684 5680
5747 5738 5728 5721 5736 5735 5724 5737 5740 5734 5733 5733 5725 5731 5747 5751 5751 5752 5756 5761 5761 5761 5761 5759 5758 5757 5755 5753 5751 5745 5743 5738 5732 5727 5723 5717 5711 5706 5701 5697 5691 5685 5680 5676
5743 5731 5717 5712 5718 5707 5725 5746 5745 5731 5724 5728 5729 5735 5743 5741 5743 5747 5751 5753 5755 5756 5756 5756 5755 5755 5755 5753 5750 5747 5741 5734 5729 5723 5719 5714 5709 5704 5698 5692 5687 5683 5677 5672
5744 5730 5714 5703 5699 5707 5726 5735 5734 5724 5712 5721 5722 5729 5736 5741 5741 5737 5743 5745 5747 5750 5750 5751 5752 5752 5750 5747 5745 5740 5735 5730 5724 5719 5715 5712 5707 5701 5694 5688 5684 5679 5673 5668
5732 5726 5710 5699 5694 5693 5716 5734 5740 5726 5703 5717 5720 5722 5726 5730 5714 5713 5728 5734 5737 5740 5742 5742 5743 5743 5741 5741 5739 5733 5727 5722 5719 5718 5714 5710 5704 5697 5691 5686 5681 5675 5669 5664
5711 5707 5700 5692 5688 5699 5720 5730 5731 5702 5702 5714 5717 5718 5719 5712 5708 5713 5721 5722 5724 5728 5730 5731 5731 5729 5729 5730 5728 5722 5718 5715 5716 5713 5709 5703 5698 5692 5687 5681 5675 5669 5663 5658
5702 5693 5689 5685 5681 5690 5721 5718 5712 5709 5714 5714 5712 5712 5711 5709 5709 5709 5710 5710 5711 5713 5715 5716 5715 5713 5715 5715 5712 5708 5705 5707 5706 5702 5697 5693 5689 5684 5680 5672 5667 5661 5655 5649
5704 5703 5696 5693 5694 5710 5715 5714 5716 5715 5710 5709 5708 5707 5706 5703 5700 5698 5697 5697 5698 5699 5699 5699 5698 5697 5697 5697 5696 5691 5690 5691 5689 5686 5682 5679 5675 5671 5666 5661 5656 5651 5646 5640
5709 5710 5698 5693 5699 5704 5707 5709 5710 5710 5707 5705 5702 5700 5698 5693 5690 5687 5686 5685 5685 5685 5685 5684 5683 5681 5679 5679 5678 5675 5675 5674 5672 5667 5664 5661 5658 5655 5652 5649 5645 5640 5636 5632
5711 5705 5693 5688 5692 5694 5697 5700 5701 5702 5700 5697 5694 5692 5689 5685 5680 5678 5675 5674 5673 5672 5671 5670 5667 5665 5663 5663 5662 5661 5659 5658 5654 5650 5647 5645 5642 5639 5637 5635 5633 5630 5629 5625
5711 5705 5696 5692 5696 5690 5689 5695 5697 5693 5690 5689 5685 5681 5679 5676 5671 5668 5664 5662 5661 5659 5657 5655 5653 5651 5649 5648 5646 5645 5644 5642 5637 5633 5630 5628 5626 5624 5622 5620 5621 5621 5618 5616